Torna al catalogo

THORAD AGENA D DEB

AttivoPO
NORAD 4932·DEBRIS·🇺🇸 United States

Lanciato Apr 8, 1970 da Vandenberg Space Force Base

Loading…

Prossimi Passaggi (prossime 24 ore)

TLE

AggiornatoSource: Space-Track

Epoca: Sep 14, 2026, 08:32 UTC

1 04932U 70025FY  26257.35581940  .00001469  00000-0  10451-2 0  9992
2 04932  99.8001 285.2611 0030259  93.8247 279.9686 13.99090573815641

Traccia THORAD AGENA D DEB in tempo reale con AllMySat

Download on the App Store